• MPC Preparation (Info)

  • MPEC 2023-P23 : 2023 OH6

    The following Minor Planet Electronic Circular may be linked-to from your own Web pages, but must not otherwise be redistributed electronically.

    A form allowing access to any MPEC is at the bottom of this page.


    Read MPEC 2023-P22 Read MPEC 2023-P24


    M.P.E.C. 2023-P23                                Issued 2023 August 6, 13:55 UT
    
         The Minor Planet Electronic Circulars contain information on unusual
             minor planets, routine data on comets and natural satellites,
             and occasional editorial announcements.  They are published
        on behalf of Division F of the International Astronomical Union by the
              Minor Planet Center, Smithsonian Astrophysical Observatory,
                              Cambridge, MA 02138, U.S.A.
    			  
                 Prepared using the Tamkin Foundation Computer Network
    
                                  MPC@CFA.HARVARD.EDU
                URL https://www.minorplanetcenter.net/    ISSN 1523-6714
    
                                    2023 OH6                                 
    
    
    Observations:
         K23O06H  C2023 06 22.56242921 56 35.062-25 00 23.97         22.07GVEP023F51
         K23O06H  C2023 06 22.57271921 56 35.664-25 00 19.39         22.56GVEP023F51
         K23O06H  C2023 06 22.58707521 56 36.453-25 00 14.04         22.56GVEP023F51
         K23O06H  C2023 06 22.59732821 56 37.009-25 00 09.50         22.19GVEP023F51
         K23O06H* C2023 07 25.46342022 14 27.146-19 41 21.39         21.13wXEP023F51
         K23O06H  C2023 07 25.47433622 14 27.061-19 41 12.62         21.30wXEP023F51
         K23O06H  C2023 07 25.49621122 14 26.905-19 40 54.86         21.19wXEP023F51
         K23O06H  C2023 07 25.56436622 14 26.361-19 39 59.41         21.20GVEP023F51
         K23O06H  C2023 07 25.56517922 14 26.350-19 39 58.71         20.99GVEP023F51
         K23O06H 3C2023 07 26.21731622 14 25.18 -19 30 50.5          20.8 GVEP023W86
         K23O06H 3C2023 07 26.22052722 14 25.16 -19 30 48.3          20.8 GVEP023W86
         K23O06H 3C2023 07 26.22371722 14 25.12 -19 30 45.6          20.9 GVEP023W86
         K23O06H 3C2023 07 26.22695722 14 25.11 -19 30 42.9          21.5 GVEP023W86
         K23O06H  V2023 07 26.24449922 14 24.96 -19 30 28.4                WEP023247
         K23O06H  v2023 07 26.2444991 289.14670  -30.52631   1710           EP023247
         K23O06H  V2023 07 26.25497722 14 24.86 -19 30 19.2                WEP023247
         K23O06H  v2023 07 26.2549771 289.14670  -30.52631   1710           EP023247
         K23O06H  V2023 07 26.26544422 14 24.79 -19 30 11.3                WEP023247
         K23O06H  v2023 07 26.2654441 289.14670  -30.52631   1710           EP023247
         K23O06H  C2023 07 26.34093122 14 24.749-19 29 22.79         20.9 GVEP023654
         K23O06H  C2023 07 26.35295922 14 24.644-19 29 12.86         20.9 GVEP023654
         K23O06H |C2023 07 28.29852 22 14 12.21 -19 01 19.3          20.9 VuEP023807
         K23O06H |C2023 07 28.30453 22 14 12.13 -19 01 13.4          21.1 VuEP023807
         K23O06H |C2023 07 29.25908 22 14 03.23 -18 47 08.6          20.4 GVEP023807
         K23O06H |C2023 07 29.26185 22 14 03.18 -18 47 06.1          20.5 GVEP023807
         K23O06H |C2023 07 29.26462 22 14 03.14 -18 47 03.4          20.8 GVEP023807
         K23O06H  C2023 08 06.13805222 11 25.07 -16 36 14.8                WEP023X09
         K23O06H  C2023 08 06.15199522 11 24.56 -16 36 00.3                WEP023X09
    
    Observer details:
    247 Roving Observer.  Observers A. Schnabel, D. Ruhela.  Measurer S. Deen.
        0.43-m reflector + CCD.
    654 Table Mountain Observatory, Wrightwood-PHMC.  Observers N. Evans, P. Choi,
        N. Saini, C. Zhai, R. Trahan, M. Shao.  1.0-m Reflector + CCD.
    807 Cerro Tololo Observatory, La Serena.  Observers T. Linder, R. Holmes, L.
        Horn.  0.61-m f/6.5 Dall-Kirkham Astrograph + CCD, 1.00-m f/10.0
        astrograph + CCD.
    F51 Pan-STARRS 1, Haleakala.  Observers J. Bulger, K. Chambers, T. Lowe, P.
        Minguez, A. Schultz, I. Smith.  Measurers S. Chastel, J. Fairlamb, M.
        Huber, Y. Ramanjooloo, R. Wainscoat, R. Weryk, K. Chambers, T. de Boer, J.
        Bulger, H. Gao, C.-C. Lin, T. Lowe, E. Magnier, P. Minguez, A. Schultz, I.
        Smith.  1.8-m Ritchey-Chretien + CCD.
    W86 Cerro Tololo-LCO B.  Observers J. D. Armstrong, A. M. Tokuoka.  1.0-m f/8
        modified Ritchey-Chretien + CCD.
    X09 Deep Random Survey, Rio Hurtado.  Observers A. Schnabel, D. Ruhela.
        Measurer S. Deen.  0.43-m reflector + CMOS.
    
    Orbital elements:
    2023 OH6                                                 Earth MOID = 0.3333 AU
    Epoch 2023 Sept. 13.0 TT = JDT 2460200.5                Veres                   
    M 352.55158              (2000.0)            P               Q                  
    n   0.21545583     Peri.   45.59539     +0.96958929     -0.21443454             
    a   2.7556912      Node   326.26730     +0.11579968     +0.82658064             
    e   0.5287139      Incl.   12.26406     +0.21560853     +0.52036744             
    P   4.57           H   20.38          G   0.15           U   6                  
    Residuals in seconds of arc
    230622 F51  0.1+  0.3+    230726 W86  0.0   0.2+    230728 807  0.3-  0.1-
    230622 F51  0.3+  0.4+    230726 W86  0.1+  0.2-    230728 807  0.3-  0.5+
    230622 F51  0.0   0.4-    230726 W86  0.1-  0.2-    230729 807  0.0   0.1-
    230622 F51  0.4-  0.3-    230726 W86  0.2+  0.1-    230729 807  0.0   0.1-
    230725 F51  0.0   0.0     230726 247  0.3+  0.1-    230729 807  0.1+  0.1+
    230725 F51  0.0   0.0     230726 247  0.2+  0.5+    230806 X09  0.4+  0.2+
    230725 F51  0.2+  0.2+    230726 247  0.6+  0.3-    230806 X09  0.0   0.4-
    230725 F51  0.1+  0.0     230726 654  0.1+  0.1-
    230725 F51  0.0   0.0     230726 654  0.1+  0.1-
    
    Ephemeris:
    2023 OH6                 a,e,i = 2.76, 0.53, 12                  q = 1.2987
    Date    TT    R. A. (2000) Decl.     Delta      r    Elong.  Phase     V
    2023 07 07    22 08 36.1 -23 04 16   0.7887  1.6833   137.3    24.2    22.1
    ...
    2023 07 22    22 14 18.7 -20 26 08   0.6342  1.5947   149.3    19.0    21.4
    ...
    2023 07 30    22 13 54.5 -18 36 01   0.5650  1.5499   156.5    15.1    20.9
    ...
    2023 08 05    22 11 56.5 -16 56 58   0.5195  1.5178   162.3    11.7    20.6
    2023 08 06    22 11 28.5 -16 38 53   0.5125  1.5126   163.3    11.1    20.5
    2023 08 07    22 10 58.1 -16 20 20   0.5057  1.5074   164.3    10.5    20.5
    ...
    2023 08 13    22 07 09.3 -14 18 39   0.4681  1.4772   170.6     6.4    20.1
    ...
    2023 08 21    22 00 21.0 -11 07 22   0.4278  1.4395   178.7     0.9    19.5
    ...
    2023 09 05    21 45 49.1 -03 48 55   0.3825  1.3787   162.9    12.4    19.7
    
    M. P. C. Staff               (C) Copyright 2023 MPC           M.P.E.C. 2023-P23
    


    Read MPEC 2023-P22 Read MPEC 2023-P24


    MPEC number:

    Enter an MPEC number in one of the following forms:

    • 1997-B01 (the full form)
    • J97B01 (the packed version of the full form)
    • B01 (the abbreviated form)